Regional Weather Roundup
Issued by NWS Cleveland, OH

Home | Current Version | Previous Version | Graphics & Text | Print | Product List | Glossary On
Versions: 1 2 3 4 5 6 7 8 9 10 11 12 13 14 15 16 17 18 19 20 21 22 23 24 25 26 27 28 29 30 31 32 33 34 35 36 37 38 39 40 41 42 43 44 45 46 47 48 49 50
936
ASUS41 KCLE 251610
RWRCLE
OHIO REGIONAL WEATHER ROUNDUP
NATIONAL WEATHER SERVICE CLEVELAND, OH
1100 AM EST SAT FEB 25 2017

NOTE: "FAIR" INDICATES FEW OR NO CLOUDS BELOW 12,000 FEET WITH NO
SIGNIFICANT WEATHER AND/OR OBSTRUCTIONS TO VISIBILITY.

OHZ001>008-015>018-024>027-034-035-043-044-251700-
   NORTHWEST OHIO

CITY           SKY/WX    TMP DP  RH WIND       PRES   REMARKS
DEFIANCE       CLOUDY    33  25  72 SW12G24   29.68R WCI  24
FINDLAY        LGT SNOW  35  25  66 W22G32    29.68R WCI  23
TOLEDO EXPRESS CLOUDY    35  25  66 W23G30    29.65R WCI  23
TOLEDO EXEC    CLOUDY    36  32  85 W16       29.66R
LIMA           LGT SNOW  32  30  92 W25       29.71R FOG     WCI  19
$$

OHZ009>014-019>023-028>033-038-089-251700-
   NORTHEAST OHIO

CITY           SKY/WX    TMP DP  RH WIND       PRES   REMARKS
CLE-HOPKINS    CLOUDY    45  31  58 SW24G35   29.62R
CLE-LAKEFRONT  CLOUDY    45  32  60 SW23G35   29.59R
CUY CO. ARPT   CLOUDY    45  32  61 W18G30    29.59R
LORAIN-ELYRIA  LGT RAIN  40  29  64 W26G33    29.63R
ASHTABULA      CLOUDY    46  33  60 W17G24    29.57S
AKRON-CANTON   CLOUDY    45  31  58 W14G24    29.61R
WOOSTER        CLOUDY    40  31  70 W21       29.64R
MANSFIELD      CLOUDY    37  27  67 SW21G37   29.64R
YOUNGSTOWN     CLOUDY    45  33  63 W14       29.58S
$$

OHZ042-051>053-060>062-070>072-077>081-251700-
  SOUTHWEST OHIO

CITY           SKY/WX    TMP DP  RH WIND       PRES   REMARKS
CINC-COVINGTON CLOUDY    34  25  69 W20G35    29.83R WCI  23
CINC-LUNKEN    CLOUDY    38  27  64 W15G30    29.86R
HAMILTON       CLOUDY    35  27  72 W21       29.84R WCI  24
DAYTON         FLURRIES  33  25  72 W31G41    29.78R WCI  19
WRIGHT-PAT AFB LGT SNOW  36  27  69 W21G36    29.78R
DAYTON GENERAL CLOUDY    34  28  79 W14G24    29.79R WCI  25
WILMINGTON     CLOUDY    36  24  62 W21       29.77R
$$

OHZ036-037-039>041-045>050-054>059-063>069-073>076-082>088-251700-
  CENTRAL AND SOUTHEAST OHIO

CITY           SKY/WX    TMP DP  RH WIND       PRES   REMARKS
COLUMBUS       CLOUDY    41  26  55 W25G37    29.71R
OSU AIRPORT    LGT RAIN  39  27  62 W25G36    29.71R
BOLTON FIELD   PTSUNNY   39  28  65 W24G31    29.73R
RICKENBACK AFB PTSUNNY   40  29  64 W29G37    29.73S
NEWARK         CLOUDY    40  29  64 W21G31    29.70R
MARION         PTSUNNY   38  28  67 W18G31    29.68R
LANCASTER      CLOUDY    41  29  62 W17G30    29.74R
ZANESVILLE     CLOUDY    45  31  58 W15G25    29.67R
NEW PHILLY     NOT AVBL
$$




USA.gov is the U.S. government's official web portal to all federal, state and local government web resources and services.